| time (UTC) | temp F | wind direction | speed MPH | gust MPH | rain 1hr in | rain 24hr in | rain mn in | humidity % | barometer mb |
| 20260503200546 | 66 | 297 | 0.0 | 2.0 | 0.00 | 0.00 | 0.00 | 27 | 1016.1 |
| 20260503200046 | 67 | 297 | 0.0 | 2.0 | 0.00 | 0.00 | 0.00 | 26 | 1016.1 |
| 20260503195546 | 67 | 297 | 0.0 | 2.0 | 0.00 | 0.00 | 0.00 | 26 | 1016.1 |
| 20260503195045 | 68 | 297 | 0.0 | 2.0 | 0.00 | 0.00 | 0.00 | 26 | 1016.1 |
| 20260503194550 | 69 | 297 | 0.0 | 2.0 | 0.00 | 0.00 | 0.00 | 26 | 1016.1 |
| 20260503194046 | 70 | 297 | 0.0 | 3.0 | 0.00 | 0.00 | 0.00 | 24 | 1016.0 |
| 20260503193545 | 71 | 297 | 1.0 | 5.0 | 0.00 | 0.00 | 0.00 | 21 | 1016.0 |
| 20260503193045 | 71 | 297 | 2.0 | 5.0 | 0.00 | 0.00 | 0.00 | 20 | 1015.8 |
| 20260503192545 | 71 | 245 | 0.0 | 5.0 | 0.00 | 0.00 | 0.00 | 18 | 1015.8 |
| 20260503192044 | 72 | 259 | 2.0 | 10.0 | 0.00 | 0.00 | 0.00 | 18 | 1015.8 |
| 20260503191544 | 72 | 268 | 1.0 | 10.0 | 0.00 | 0.00 | 0.00 | 18 | 1015.8 |
| 20260503191044 | 71 | 275 | 6.0 | 10.0 | 0.00 | 0.00 | 0.00 | 18 | 1015.7 |
| 20260503190544 | 71 | 292 | 3.0 | 10.0 | 0.00 | 0.00 | 0.00 | 18 | 1015.7 |
| 20260503190043 | 71 | 245 | 2.0 | 8.0 | 0.00 | 0.00 | 0.00 | 18 | 1015.7 |
| 20260503185544 | 71 | 297 | 4.0 | 9.0 | 0.00 | 0.00 | 0.00 | 19 | 1015.5 |
| 20260503185043 | 71 | 285 | 3.0 | 9.0 | 0.00 | 0.00 | 0.00 | 18 | 1015.5 |
| 20260503184601 | 71 | 286 | 1.0 | 6.0 | 0.00 | 0.00 | 0.00 | 18 | 1015.4 |
| 20260503184044 | 71 | 266 | 3.0 | 6.0 | 0.00 | 0.00 | 0.00 | 18 | 1015.3 |
| 20260503183543 | 72 | 304 | 1.0 | 10.0 | 0.00 | 0.00 | 0.00 | 17 | 1015.3 |
| 20260503183048 | 72 | 232 | 1.0 | 11.0 | 0.00 | 0.00 | 0.00 | 18 | 1015.1 |
| 20260503182542 | 72 | 278 | 5.0 | 11.0 | 0.00 | 0.00 | 0.00 | 17 | 1015.1 |
| 20260503182041 | 72 | 286 | 3.0 | 10.0 | 0.00 | 0.00 | 0.00 | 16 | 1015.0 |
| 20260503181546 | 72 | 166 | 2.0 | 10.0 | 0.00 | 0.00 | 0.00 | 16 | 1015.0 |
| 20260503181042 | 73 | 271 | 1.0 | 13.0 | 0.00 | 0.00 | 0.00 | 17 | 1014.9 |
| 20260503180542 | 73 | 289 | 3.0 | 13.0 | 0.00 | 0.00 | 0.00 | 17 | 1014.9 |
| 20260503180041 | 73 | 268 | 5.0 | 12.0 | 0.00 | 0.00 | 0.00 | 17 | 1014.9 |
| 20260503175540 | 73 | 289 | 2.0 | 8.0 | 0.00 | 0.00 | 0.00 | 18 | 1014.9 |
| 20260503175043 | 73 | 250 | 1.0 | 10.0 | 0.00 | 0.00 | 0.00 | 20 | 1014.8 |
| 20260503174541 | 72 | 288 | 2.0 | 10.0 | 0.00 | 0.00 | 0.00 | 18 | 1014.8 |
| 20260503174041 | 73 | 264 | 6.0 | 9.0 | 0.00 | 0.00 | 0.00 | 24 | 1014.8 |
| 20260503173544 | 73 | 268 | 1.0 | 6.0 | 0.00 | 0.00 | 0.00 | 24 | 1014.8 |
| 20260503173041 | 73 | 218 | 0.0 | 7.0 | 0.00 | 0.00 | 0.00 | 24 | 1014.8 |
| 20260503172543 | 73 | 314 | 3.0 | 7.0 | 0.00 | 0.00 | 0.00 | 24 | 1014.7 |
| 20260503172040 | 74 | 244 | 1.0 | 4.0 | 0.00 | 0.00 | 0.00 | 24 | 1014.8 |
| 20260503171603 | 74 | 160 | 1.0 | 4.0 | 0.00 | 0.00 | 0.00 | 23 | 1014.7 |
| 20260503171040 | 74 | 276 | 1.0 | 4.0 | 0.00 | 0.00 | 0.00 | 20 | 1014.8 |
| 20260503170540 | 74 | 314 | 0.0 | 2.0 | 0.00 | 0.00 | 0.00 | 19 | 1014.8 |
| 20260503150533 | 77 | 272 | 2.0 | 5.0 | 0.00 | 0.00 | 0.00 | 23 | 1014.5 |
| 20260503131019 | 77 | 309 | 9.0 | 12.0 | 0.00 | 0.00 | 0.00 | 28 | 1015.2 |
| 20260503130518 | 77 | 309 | 3.0 | 11.0 | 0.00 | 0.00 | 0.00 | 27 | 1015.4 |
| 20260503110555 | 74 | 309 | 4.0 | 8.0 | 0.00 | 0.00 | 0.00 | 31 | 1017.1 |
| 20260503081515 | 65 | 304 | 3.0 | 6.0 | 0.00 | 0.00 | 0.00 | 42 | 1019.8 |
| 20260503081013 | 64 | 294 | 1.0 | 4.0 | 0.00 | 0.00 | 0.00 | 44 | 1019.9 |
| 20260503080517 | 64 | 309 | 3.0 | 4.0 | 0.00 | 0.00 | 0.00 | 44 | 1020.1 |
| 20260503072503 | 61 | 294 | 1.0 | 3.0 | 0.00 | 0.00 | 0.00 | 49 | 1020.4 |
| 20260503072101 | 60 | 294 | 1.0 | 3.0 | 0.00 | 0.00 | 0.00 | 49 | 1020.5 |
| 20260503071611 | 60 | 294 | 2.0 | 4.0 | 0.00 | 0.00 | 0.00 | 50 | 1020.5 |
| 20260503071058 | 60 | 294 | 2.0 | 4.0 | 0.00 | 0.00 | 0.00 | 51 | 1020.5 |
| 20260503070557 | 60 | 314 | 2.0 | 4.0 | 0.00 | 0.00 | 0.00 | 51 | 1020.6 |
| 20260503055037 | 52 | 145 | 0.0 | 2.0 | 0.00 | 0.00 | 0.00 | 63 | 1021.0 |
| 20260503054543 | 52 | 145 | 0.0 | 2.0 | 0.00 | 0.00 | 0.00 | 63 | 1021.0 |
| 20260503054036 | 51 | 145 | 0.0 | 2.0 | 0.00 | 0.00 | 0.00 | 64 | 1020.9 |
| 20260503053534 | 51 | 145 | 0.0 | 2.0 | 0.00 | 0.00 | 0.00 | 65 | 1021.0 |
| 20260503053038 | 51 | 145 | 0.0 | 2.0 | 0.00 | 0.00 | 0.00 | 64 | 1021.1 |
| 20260503052533 | 50 | 145 | 0.0 | 3.0 | 0.00 | 0.00 | 0.00 | 67 | 1021.1 |
| 20260503052034 | 50 | 145 | 0.0 | 3.0 | 0.00 | 0.00 | 0.00 | 65 | 1021.1 |
| 20260503051533 | 50 | 145 | 1.0 | 3.0 | 0.00 | 0.00 | 0.00 | 65 | 1021.1 |
| 20260503051032 | 50 | 145 | 0.0 | 3.0 | 0.00 | 0.00 | 0.00 | 66 | 1021.2 |
| 20260503050532 | 50 | 145 | 0.0 | 2.0 | 0.00 | 0.00 | 0.00 | 66 | 1021.3 |
| 20260503050030 | 50 | 145 | 0.0 | 2.0 | 0.00 | 0.00 | 0.00 | 68 | 1021.3 |
| 20260503045529 | 50 | 145 | 0.0 | 2.0 | 0.00 | 0.00 | 0.00 | 68 | 1021.3 |
| 20260503045027 | 49 | 145 | 0.0 | 2.0 | 0.00 | 0.00 | 0.00 | 68 | 1021.3 |
| 20260503044542 | 48 | 145 | 1.0 | 2.0 | 0.00 | 0.00 | 0.00 | 66 | 1021.3 |
| 20260503044028 | 48 | 145 | 0.0 | 2.0 | 0.00 | 0.00 | 0.00 | 68 | 1021.3 |
| 20260503043524 | 47 | 145 | 0.0 | 2.0 | 0.00 | 0.00 | 0.00 | 69 | 1021.3 |
| 20260503043038 | 47 | 309 | 0.0 | 2.0 | 0.00 | 0.00 | 0.00 | 69 | 1021.3 |
| 20260503042522 | 47 | 309 | 0.0 | 2.0 | 0.00 | 0.00 | 0.00 | 69 | 1021.3 |
| 20260503042021 | 47 | 309 | 0.0 | 2.0 | 0.00 | 0.00 | 0.00 | 69 | 1021.2 |
| 20260503041520 | 47 | 309 | 0.0 | 2.0 | 0.00 | 0.00 | 0.00 | 68 | 1021.2 |
| 20260503041018 | 48 | 309 | 0.0 | 3.0 | 0.00 | 0.00 | 0.00 | 67 | 1021.2 |
| 20260503040518 | 48 | 309 | 1.0 | 3.0 | 0.00 | 0.00 | 0.00 | 66 | 1021.2 |
| 20260503040017 | 48 | 309 | 2.0 | 4.0 | 0.00 | 0.00 | 0.00 | 66 | 1021.2 |
| 20260503035517 | 48 | 309 | 1.0 | 4.0 | 0.00 | 0.00 | 0.00 | 66 | 1021.2 |
| 20260503035017 | 48 | 309 | 2.0 | 3.0 | 0.00 | 0.00 | 0.00 | 66 | 1021.2 |
| 20260503034516 | 48 | 309 | 1.0 | 3.0 | 0.00 | 0.00 | 0.00 | 66 | 1021.2 |
| 20260503034015 | 48 | 309 | 1.0 | 2.0 | 0.00 | 0.00 | 0.00 | 66 | 1021.2 |
| 20260503033519 | 48 | 309 | 0.0 | 2.0 | 0.00 | 0.00 | 0.00 | 66 | 1021.2 |
| 20260503033016 | 48 | 309 | 1.0 | 2.0 | 0.00 | 0.00 | 0.00 | 66 | 1021.2 |
| 20260503032515 | 48 | 145 | 1.0 | 2.0 | 0.00 | 0.00 | 0.00 | 66 | 1021.2 |
| 20260503032018 | 48 | 145 | 0.0 | 2.0 | 0.00 | 0.00 | 0.00 | 66 | 1021.2 |
| 20260503031521 | 48 | 309 | 0.0 | 2.0 | 0.00 | 0.00 | 0.00 | 66 | 1021.2 |
| 20260503031014 | 48 | 309 | 1.0 | 1.0 | 0.00 | 0.00 | 0.00 | 66 | 1021.2 |
| 20260503030512 | 49 | 309 | 0.0 | 2.0 | 0.00 | 0.00 | 0.00 | 66 | 1021.2 |
| 20260503030015 | 49 | 309 | 0.0 | 2.0 | 0.00 | 0.00 | 0.00 | 65 | 1021.2 |
| 20260503025512 | 49 | 309 | 0.0 | 2.0 | 0.00 | 0.00 | 0.00 | 66 | 1021.2 |
| 20260503025012 | 49 | 309 | 0.0 | 2.0 | 0.00 | 0.00 | 0.00 | 66 | 1021.1 |
| 20260503024511 | 49 | 309 | 1.0 | 2.0 | 0.00 | 0.00 | 0.00 | 65 | 1021.1 |
| 20260503024016 | 49 | 309 | 0.0 | 1.0 | 0.00 | 0.00 | 0.00 | 65 | 1021.1 |
| 20260503023509 | 49 | 309 | 0.0 | 2.0 | 0.00 | 0.00 | 0.00 | 65 | 1021.2 |
| 20260503023011 | 49 | 309 | 0.0 | 2.0 | 0.00 | 0.00 | 0.00 | 65 | 1021.2 |
| 20260503022511 | 49 | 309 | 1.0 | 2.0 | 0.00 | 0.00 | 0.00 | 65 | 1021.2 |
| 20260503022108 | 49 | 309 | 1.0 | 2.0 | 0.00 | 0.00 | 0.00 | 64 | 1021.2 |
| 20260503021508 | 50 | 309 | 1.0 | 2.0 | 0.00 | 0.00 | 0.00 | 63 | 1021.3 |
| 20260503021008 | 50 | 309 | 0.0 | 2.0 | 0.00 | 0.00 | 0.00 | 63 | 1021.3 |
| 20260503020511 | 50 | 309 | 1.0 | 3.0 | 0.00 | 0.00 | 0.00 | 63 | 1021.2 |
| 20260503020008 | 50 | 309 | 2.0 | 3.0 | 0.00 | 0.00 | 0.00 | 63 | 1021.3 |
| 20260503015507 | 50 | 309 | 1.0 | 3.0 | 0.00 | 0.00 | 0.00 | 64 | 1021.2 |
| 20260503015007 | 49 | 309 | 2.0 | 3.0 | 0.00 | 0.00 | 0.00 | 64 | 1021.2 |
| 20260503014505 | 49 | 309 | 1.0 | 2.0 | 0.00 | 0.00 | 0.00 | 65 | 1021.2 |
| 20260503014004 | 50 | 309 | 0.0 | 2.0 | 0.00 | 0.00 | 0.00 | 65 | 1021.2 |
| 20260503013503 | 50 | 309 | 0.0 | 1.0 | 0.00 | 0.00 | 0.00 | 64 | 1021.2 |
| 20260503013002 | 50 | 309 | 0.0 | 2.0 | 0.00 | 0.00 | 0.00 | 63 | 1021.4 |
| 20260503012502 | 50 | 309 | 0.0 | 2.0 | 0.00 | 0.00 | 0.00 | 64 | 1021.4 |
| 20260503012100 | 50 | 145 | 0.0 | 3.0 | 0.00 | 0.00 | 0.00 | 63 | 1021.4 |
| 20260503011625 | 51 | 145 | 1.0 | 3.0 | 0.00 | 0.00 | 0.00 | 62 | 1021.4 |
| 20260503011058 | 51 | 145 | 2.0 | 3.0 | 0.00 | 0.00 | 0.00 | 61 | 1021.4 |
| 20260503010558 | 51 | 145 | 2.0 | 3.0 | 0.00 | 0.00 | 0.00 | 61 | 1021.4 |
| 20260503010059 | 51 | 145 | 1.0 | 2.0 | 0.00 | 0.00 | 0.00 | 61 | 1021.4 |
| 20260503005602 | 51 | 145 | 0.0 | 2.0 | 0.00 | 0.00 | 0.00 | 61 | 1021.5 |
| 20260503005058 | 51 | 145 | 1.0 | 2.0 | 0.00 | 0.00 | 0.00 | 61 | 1021.4 |
| 20260503004557 | 51 | 145 | 0.0 | 2.0 | 0.00 | 0.00 | 0.00 | 62 | 1021.5 |
| 20260503004056 | 51 | 145 | 1.0 | 2.0 | 0.00 | 0.00 | 0.00 | 62 | 1021.5 |
| 20260503003556 | 51 | 145 | 1.0 | 2.0 | 0.00 | 0.00 | 0.00 | 62 | 1021.5 |
| 20260503003056 | 51 | 145 | 0.0 | 2.0 | 0.00 | 0.00 | 0.00 | 62 | 1021.5 |
| 20260503002555 | 51 | 145 | 0.0 | 2.0 | 0.00 | 0.00 | 0.00 | 62 | 1021.6 |
| 20260503002054 | 51 | 145 | 0.0 | 2.0 | 0.00 | 0.00 | 0.00 | 62 | 1021.6 |
| 20260503001554 | 51 | 145 | 1.0 | 2.0 | 0.00 | 0.00 | 0.00 | 62 | 1021.7 |
| 20260503001052 | 52 | 145 | 0.0 | 2.0 | 0.00 | 0.00 | 0.00 | 61 | 1021.7 |
| 20260503000552 | 52 | 145 | 0.0 | 1.0 | 0.00 | 0.00 | 0.00 | 60 | 1021.7 |
| 20260502235550 | 53 | 145 | 0.0 | 3.0 | 0.00 | 0.00 | 0.00 | 58 | 1021.9 |
| 20260502235050 | 53 | 145 | 1.0 | 2.0 | 0.00 | 0.00 | 0.00 | 58 | 1021.9 |
| 20260502234600 | 53 | 145 | 1.0 | 2.0 | 0.00 | 0.00 | 0.00 | 58 | 1021.9 |
| 20260502234049 | 53 | 145 | 0.0 | 2.0 | 0.00 | 0.00 | 0.00 | 58 | 1021.9 |
| 20260502233548 | 53 | 145 | 0.0 | 3.0 | 0.00 | 0.00 | 0.00 | 58 | 1022.0 |
| 20260502233047 | 53 | 145 | 1.0 | 2.0 | 0.00 | 0.00 | 0.00 | 58 | 1022.0 |
| 20260502232546 | 53 | 145 | 0.0 | 2.0 | 0.00 | 0.00 | 0.00 | 58 | 1022.1 |
| 20260502232051 | 53 | 145 | 0.0 | 2.0 | 0.00 | 0.00 | 0.00 | 58 | 1022.2 |
| 20260502231546 | 53 | 145 | 0.0 | 2.0 | 0.00 | 0.00 | 0.00 | 58 | 1022.2 |
| 20260502231047 | 54 | 145 | 0.0 | 2.0 | 0.00 | 0.00 | 0.00 | 57 | 1022.2 |
| 20260502230545 | 54 | 145 | 0.0 | 2.0 | 0.00 | 0.00 | 0.00 | 56 | 1022.2 |
| 20260502230046 | 54 | 145 | 1.0 | 2.0 | 0.00 | 0.00 | 0.00 | 56 | 1022.3 |
| 20260502225543 | 54 | 145 | 2.0 | 2.0 | 0.00 | 0.00 | 0.00 | 56 | 1022.3 |
| 20260502225043 | 54 | 145 | 1.0 | 2.0 | 0.00 | 0.00 | 0.00 | 56 | 1022.2 |
| 20260502224542 | 54 | 145 | 0.0 | 3.0 | 0.00 | 0.00 | 0.00 | 57 | 1022.2 |
| 20260502224045 | 54 | 145 | 0.0 | 3.0 | 0.00 | 0.00 | 0.00 | 57 | 1022.2 |
| 20260502223542 | 54 | 145 | 2.0 | 3.0 | 0.00 | 0.00 | 0.00 | 57 | 1022.2 |
| 20260502223042 | 54 | 145 | 0.0 | 2.0 | 0.00 | 0.00 | 0.00 | 57 | 1022.2 |
| 20260502222540 | 54 | 145 | 0.0 | 2.0 | 0.00 | 0.00 | 0.00 | 57 | 1022.2 |
| 20260502222038 | 54 | 145 | 0.0 | 2.0 | 0.00 | 0.00 | 0.00 | 56 | 1022.2 |
| 20260502221539 | 55 | 145 | 0.0 | 2.0 | 0.00 | 0.00 | 0.00 | 56 | 1022.2 |
| 20260502221037 | 55 | 145 | 0.0 | 2.0 | 0.00 | 0.00 | 0.00 | 55 | 1022.2 |
| 20260502220536 | 55 | 145 | 0.0 | 2.0 | 0.00 | 0.00 | 0.00 | 54 | 1022.2 |
| 20260502220042 | 55 | 145 | 0.0 | 2.0 | 0.00 | 0.00 | 0.00 | 54 | 1022.1 |
| 20260502215536 | 56 | 145 | 1.0 | 2.0 | 0.00 | 0.00 | 0.00 | 54 | 1022.2 |
| 20260502215035 | 56 | 145 | 0.0 | 2.0 | 0.00 | 0.00 | 0.00 | 53 | 1022.1 |
| 20260502214634 | 56 | 145 | 0.0 | 2.0 | 0.00 | 0.00 | 0.00 | 52 | 1022.1 |
| 20260502214034 | 56 | 145 | 1.0 | 2.0 | 0.00 | 0.00 | 0.00 | 53 | 1022.1 |
| 20260502213536 | 56 | 145 | 1.0 | 2.0 | 0.00 | 0.00 | 0.00 | 53 | 1022.1 |
| 20260502213040 | 56 | 145 | 0.0 | 2.0 | 0.00 | 0.00 | 0.00 | 53 | 1022.1 |
| 20260502212534 | 57 | 145 | 0.0 | 2.0 | 0.00 | 0.00 | 0.00 | 53 | 1022.1 |
| 20260502212034 | 56 | 145 | 0.0 | 2.0 | 0.00 | 0.00 | 0.00 | 52 | 1022.1 |
| 20260502211537 | 56 | 145 | 0.0 | 2.0 | 0.00 | 0.00 | 0.00 | 52 | 1022.1 |
| 20260502211035 | 57 | 145 | 0.0 | 0.0 | 0.00 | 0.00 | 0.00 | 53 | 1022.2 |
| 20260502210537 | 57 | 145 | 0.0 | 2.0 | 0.00 | 0.00 | 0.00 | 51 | 1022.2 |
| 20260502210034 | 58 | 145 | 0.0 | 3.0 | 0.00 | 0.00 | 0.00 | 51 | 1022.2 |
| 20260502205535 | 58 | 145 | 0.0 | 4.0 | 0.00 | 0.00 | 0.00 | 50 | 1022.3 |
| 20260502205033 | 58 | 145 | 1.0 | 4.0 | 0.00 | 0.00 | 0.00 | 50 | 1022.4 |
| 20260502204536 | 58 | 191 | 2.0 | 3.0 | 0.00 | 0.00 | 0.00 | 50 | 1022.4 |
| 20260502204032 | 58 | 191 | 2.0 | 3.0 | 0.00 | 0.00 | 0.00 | 50 | 1022.4 |
| 20260502203532 | 58 | 191 | 1.0 | 2.0 | 0.00 | 0.00 | 0.00 | 49 | 1022.2 |
| 20260502203032 | 58 | 191 | 1.0 | 2.0 | 0.00 | 0.00 | 0.00 | 49 | 1022.2 |
| 20260502202533 | 58 | 191 | 0.0 | 2.0 | 0.00 | 0.00 | 0.00 | 50 | 1022.2 |
| 20260502202031 | 59 | 191 | 0.0 | 2.0 | 0.00 | 0.00 | 0.00 | 50 | 1022.2 |
| 20260502201537 | 59 | 191 | 0.0 | 2.0 | 0.00 | 0.00 | 0.00 | 49 | 1022.2 |
| 20260502201032 | 60 | 191 | 0.0 | 2.0 | 0.00 | 0.00 | 0.00 | 48 | 1022.2 |